Regional Weather Roundup
Issued by NWS

Home | Current Version | Previous Version | Graphics & Text | Print | Product List | Glossary On
Versions: 1 2 3 4 5 6 7 8 9 10 11 12 13 14 15 16 17 18 19 20 21 22 23 24 25 26 27
000
ASUS45 KSLC 240410
RWRUT

UTAH REGIONAL WEATHER ROUNDUP
NATIONAL WEATHER SERVICE SALT LAKE CITY UT
1000 PM MDT FRI JUN 23 2017

UTZ001>011-023>025-240500-

NORTHERN UTAH

CITY           SKY/WX    TMP DP  RH WIND       PRES   REMARKS
BRIGHAM CITY   CLEAR     72  47  40 CALM      30.15R
HILL AFB       CLEAR     72  38  29 E3        30.17R
LOGAN          CLEAR     62  45  53 N7        30.16R
OGDEN          CLEAR     71  42  35 CALM      30.15R
SALT LAKE CITY CLEAR     78  41  26 W3        30.13R
TOOELE VALLEY  CLEAR     55  34  44 S6        30.15R
WENDOVER         N/A     75  30  19 NW6       30.14R
HEBER CITY     CLEAR     61  30  31 CALM      30.21R
WEST JORDAN    CLEAR     71  41  33 W9        30.16R

$$

UTZ011>015-024>027-240500-

CENTRAL/NORTHEAST UTAH

CITY           SKY/WX    TMP DP  RH WIND       PRES   REMARKS
PROVO AIRPORT  CLEAR     74  41  30 N9        30.15R
MOAB/CANYONLAN CLEAR     82  19   9 NW12      30.01R
DELTA          CLEAR     72  18  13 N9        30.14R
PRICE          CLEAR     74  23  15 NW17G24   30.18R
RICHFIELD      CLEAR     73  28  19 W3        30.18R
ROOSEVELT      CLEAR     73  27  17 W13       30.12R
VERNAL         CLEAR     74  26  16 NE6       30.12R

$$

UTZ013>016-019>022-027-240500-

SOUTHERN UTAH

CITY           SKY/WX    TMP DP  RH WIND       PRES   REMARKS
BRYCE CANYON   CLEAR     55  19  24 NE5       30.32R
CEDAR CITY     CLEAR     76  23  14 N8        30.14R
MILFORD        CLEAR     72  22  15 N9        30.12R
ST GEORGE      CLEAR     99  28   8 NE14G20   29.84R HX  92
HANKSVILLE     CLEAR     86  19   8 NW12      30.06R
KANAB          CLEAR     81  30  16 NW12      30.09R
BLANDING       CLEAR     71  29  21 N13       30.19R

$$

REGIONAL REPORTS     COLORADO/ARIZONA

CITY           SKY/WX    TMP DP  RH WIND       PRES   REMARKS
CRAIG, CO      CLEAR     57  38  48 CALM      30.22R
GRAND JUNCTION CLEAR     78  13   8 N8        30.04R
RIFLE, CO      CLEAR     74  26  16 SW6       30.14R
MONTROSE, CO   CLEAR     70  30  22 SE6       30.15R
CORTEZ, CO     CLEAR     67  33  28 NE3       30.14R
COLORADO CITY    N/A     77  36  22 N8        30.07R
PAGE, AZ       CLEAR     93  17   6 NW3       29.98R
GRAND CANYON   CLEAR     64  28  25 CALM      30.21R
KINGMAN, AZ    CLEAR     88  35  15 SW9       29.93R
FLAGSTAFF, AZ  PTCLDY    76  27  16 SW7       30.24R

$$

REGIONAL REPORTS    NEVADA/IDAHO/WYOMING

CITY           SKY/WX    TMP DP  RH WIND       PRES   REMARKS
LAS VEGAS, NV  PTCLDY   107  19   4 SW8       29.76S HX  98
ELY, NY        CLEAR     73  20  13 N12       30.24R
ELKO, NV       CLEAR     73  29  19 E7        30.19R
POCATELLO, ID  CLEAR     60  38  43 SE5       30.19R
BURLEY, ID     CLEAR     62  46  55 S7        30.16R
FORT BRIDGER,    N/A     60  27  28 W6        30.34R
EVANSTON, WY   CLEAR     62  29  28 NW7       30.33R
ROCK SPRINGS,  CLEAR     60  32  34 NE14      30.30R
KEMMERER, WY     N/A     55  32  41 NW10      30.34R

$$




USA.gov is the U.S. government's official web portal to all federal, state and local government web resources and services.